Regional Weather Roundup
Issued by NWS

Home | Current Version | Previous Version | Text Only | Print | Product List | Glossary Off
Versions: 1 2 3 4 5 6 7 8 9 10 11 12 13 14 15 16 17 18 19 20 21 22 23 24 25 26 27 28 29 30 31 32 33 34 35 36 37 38 39 40 41 42 43 44 45 46 47 48 49 50

000
ASUS43 KIND 291410
RWRIN

WEATHER ROUNDUP FOR INDIANA
NATIONAL WEATHER SERVICE INDIANAPOLIS IN
900 AM EST THU JAN 29 2015

NOTE: "FAIR" INDICATES FEW OR NO CLOUDS BELOW 12,000 FEET WITH NO
SIGNIFICANT WEATHER AND/OR OBSTRUCTIONS TO VISIBILITY.

* - STATION DOES NOT REPORT WEATHER SUCH AS PRECIPITATION OR FOG.

+ - STATION NOT QUALITY CONTROLLED BY THE NATIONAL WEATHER SERVICE.
    USE DATA WITH CAUTION...ESPECIALLY DEWPOINT AND RELATIVE
    HUMIDITY OBSERVATIONS.

INZ001>003-010>013-019-020-291500-
NORTHWEST INDIANA

CITY           SKY/WX    TMP DP  RH WIND       PRES   REMARKS
GARY /AIRPORT/ CLOUDY    37  28  70 W8        29.75R
KNOX *+        CLOUDY    35  19  52 W3        29.72R
VALPARAISO     CLOUDY    35  29  78 W7        29.73R WCI  29

$$

LMZ046-743>745-291500-
SOUTHERN LAKE MICHIGAN

STATION/POSITION TIME  TEMP WIND        PRES
                       AIR  DIR/SP/G
                 (UTC) (F)  (DEG/KT/KT) (MB)
MICHIGAN CITY    1400   36  220/  9/  9   N/A

$$

INZ004-005-014>016-021>024-291500-
NORTH CENTRAL INDIANA

CITY           SKY/WX    TMP DP  RH WIND       PRES   REMARKS
ELKHART        CLOUDY    36  25  64 CALM      29.72F
GOSHEN         CLOUDY    36  28  73 S8        29.71S
PERU/GRISSOM   CLOUDY    38  31  76 SW12      29.73R
ROCHESTER +    MOCLDY    39  32  75 SW7       29.73R
SOUTH BEND     CLOUDY    37  28  70 SW3       29.73R
WARSAW +       MOCLDY    36  28  75 S3        29.72S

$$

INZ006>009-017-018-025>027-291500-
NORTHEAST INDIANA

CITY           SKY/WX    TMP DP  RH WIND       PRES   REMARKS
AUBURN +       CLOUDY    34  28  80 CALM      29.73F
FORT WAYNE     CLOUDY    37  30  75 S12       29.74F

$$

INZ028-029-035-036-043>045-051>053-291500-
WEST CENTRAL INDIANA

CITY           SKY/WX    TMP DP  RH WIND       PRES   REMARKS
GREENCASTLE +  MOCLDY    43  32  65 SW9G18    29.77S
LAFAYETTE      CLOUDY    41  34  76 SW9       29.74R
TERRE HAUTE    MOCLDY    44  35  70 W14       29.82R

$$

INZ030>032-037>040-046>048-054>057-064-065-291500-
CENTRAL INDIANA

CITY           SKY/WX    TMP DP  RH WIND       PRES   REMARKS
COLUMBUS       MOSUNNY   37  30  75 S12       29.82F
INDIANAPOLIS   PTSUNNY   38  31  76 S12       29.76F
-EAGLE CREEK   MOCLDY    40  31  70 S7        29.75F
KOKOMO *+      MOCLDY    37  30  75 S14       29.74R
MARION +       MOCLDY    37  30  77 S20G26    29.75S
MT COMFORT *+  MOSUNNY   39  25  56 S14G21    29.76F
SHELBYVILLE    MOSUNNY   41  31  67 S18       29.79S
ZIONSVILLE +   MOCLDY    39  29  68 S8        29.76S

$$

INZ033-034-041-042-049-050-058-059-291500-
EAST CENTRAL INDIANA

CITY           SKY/WX    TMP DP  RH WIND       PRES   REMARKS
MUNCIE         PTSUNNY   39  31  72 S16G26    29.75F

$$

INZ060-061-067>069-081>083-085>088-291500-
SOUTHWEST INDIANA

CITY           SKY/WX    TMP DP  RH WIND       PRES   REMARKS
EVANSVILLE     SUNNY     49  37  63 SW12      29.90R
HUNTINGBURG *+ MOSUNNY   48  36  61 S13       29.89R

$$

INZ062-063-066-070>080-084-089>092-291500-
SOUTH CENTRAL AND SOUTHEAST INDIANA

CITY           SKY/WX    TMP DP  RH WIND       PRES   REMARKS
BLOOMINGTON    PTSUNNY   48  35  60 SW18G26   29.81S

$$



USA.gov is the U.S. government's official web portal to all federal, state and local government web resources and services.